sat.trackr.live / text

‹ back to catalog

RSW-02

NORAD 49114 · 2021-076C

PAYLOAD ACTIVE UNKNOWN

§ Identity

Operator
Country
PRC
Launch date
2021-08-24
Launch site
JSC
Launch vehicle
Mass (kg)
RCS (m²)

External: N2YO · Heavens-Above · Gunter

§ Orbital elements

Epoch: 2026-09-20T22:29:32.878176Z

Period
107.23 min
Inclination
86.4072°
Eccentricity
0.0019352
Mean motion
13.42860041 rev/d
Perigee alt
1,084.2 km
Apogee alt
1,113.1 km
Semi-major
7,476.8 km
B*
3.2638e-4
RAAN
123.6224°
Arg perigee
149.1951°
Mean anomaly
211.0333°
Rev number
24,873

§ Raw data

RSW-021 49114U 21076C   26263.93718609  .00000201  00000+0  32638-3 0  99942 49114  86.4072 123.6224 0019352 149.1951 211.0333 13.42860041248734

JSON: /api/v1/satellites/49114 · /tle

For live sub-satellite position, see the globe view (requires WebGL).

§ Visibility from observer

Set your observer location to see the next 7 days of passes ≥ 10°. The values pass through the URL so the page stays shareable.

No JS? Fill the form by hand. The geolocation button needs JavaScript.